TimeMDT,TemperatureF,Dew PointF,Humidity,Sea Level PressureIn,VisibilityMPH,Wind Direction,Wind SpeedMPH,Gust SpeedMPH,PrecipitationIn,Events,Conditions,WindDirDegrees,DateUTC
12:16 AM,64.4,51.8,64,30.24,10.0,SW,9.2,-,N/A,,Mostly Cloudy,220,2013-07-30 06:16:00
12:36 AM,64.4,51.8,64,30.25,10.0,SW,8.1,-,N/A,,Scattered Clouds,220,2013-07-30 06:36:00
12:55 AM,64.4,51.8,64,30.25,10.0,SSW,10.4,-,N/A,,Clear,210,2013-07-30 06:55:00
1:16 AM,64.4,51.8,64,30.25,10.0,SW,10.4,-,N/A,,Scattered Clouds,220,2013-07-30 07:16:00
1:36 AM,64.4,53.6,68,30.25,10.0,SSW,9.2,-,N/A,,Scattered Clouds,210,2013-07-30 07:36:00
1:55 AM,62.6,53.6,72,30.25,10.0,West,8.1,-,N/A,,Clear,260,2013-07-30 07:55:00
2:16 AM,62.6,53.6,72,30.24,10.0,SSW,6.9,-,N/A,,Scattered Clouds,210,2013-07-30 08:16:00
2:36 AM,64.4,53.6,68,30.24,10.0,SW,9.2,-,N/A,,Mostly Cloudy,220,2013-07-30 08:36:00
2:56 AM,64.4,53.6,68,30.24,10.0,SW,9.2,-,N/A,,Scattered Clouds,230,2013-07-30 08:56:00
3:16 AM,62.6,53.6,72,30.24,10.0,SSW,6.9,-,N/A,,Scattered Clouds,210,2013-07-30 09:16:00
3:36 AM,62.6,51.8,68,30.24,10.0,SSW,6.9,-,N/A,,Clear,210,2013-07-30 09:36:00
3:55 AM,62.6,53.6,72,30.25,10.0,SW,6.9,-,N/A,,Mostly Cloudy,230,2013-07-30 09:55:00
4:16 AM,62.6,51.8,68,30.25,10.0,SW,6.9,-,N/A,,Mostly Cloudy,220,2013-07-30 10:16:00
4:35 AM,60.8,51.8,72,30.25,10.0,SW,8.1,-,N/A,,Mostly Cloudy,230,2013-07-30 10:35:00
4:56 AM,60.8,51.8,72,30.26,10.0,SW,5.8,-,N/A,,Mostly Cloudy,230,2013-07-30 10:56:00
5:16 AM,60.8,51.8,72,30.26,10.0,SSW,5.8,-,N/A,,Mostly Cloudy,210,2013-07-30 11:16:00
5:36 AM,59.0,51.8,77,30.27,10.0,NW,4.6,-,N/A,,Scattered Clouds,310,2013-07-30 11:36:00
5:56 AM,59.0,51.8,77,30.28,10.0,WSW,5.8,-,N/A,,Clear,240,2013-07-30 11:56:00
6:16 AM,57.2,51.8,82,30.27,10.0,SW,5.8,-,N/A,,Clear,230,2013-07-30 12:16:00
6:36 AM,59.0,51.8,77,30.27,10.0,SW,10.4,-,N/A,,Clear,220,2013-07-30 12:36:00
6:53 AM,62.6,51.8,68,30.28,10.0,SW,9.2,-,N/A,,Clear,220,2013-07-30 12:53:00
7:50 AM,68.0,53.6,60,30.28,50.0,SW,5.8,-,N/A,,Partly Cloudy,230,2013-07-30 13:50:00
9:47 AM,75.2,51.8,44,30.28,50.0,West,5.8,-,N/A,,Partly Cloudy,280,2013-07-30 15:47:00
11:50 AM,80.6,51.8,37,30.29,50.0,NNW,8.1,-,N/A,,Partly Cloudy,340,2013-07-30 17:50:00
12:48 PM,82.4,46.4,28,30.28,50.0,Calm,Calm,-,N/A,,Scattered Clouds,0,2013-07-30 18:48:00
1:48 PM,84.2,46.4,27,30.27,50.0,NNE,11.5,-,N/A,,Scattered Clouds,30,2013-07-30 19:48:00
3:55 PM,86.0,44.6,23,30.25,50.0,NNE,9.2,-,N/A,,Scattered Clouds,20,2013-07-30 21:55:00
4:50 PM,87.8,44.6,22,30.24,50.0,ENE,5.8,-,N/A,,Scattered Clouds,60,2013-07-30 22:50:00
5:48 PM,87.8,44.6,22,30.24,30.0,NNW,5.8,-,N/A,,Scattered Clouds,330,2013-07-30 23:48:00
6:48 PM,80.6,48.2,32,30.24,30.0,NNE,15.0,23.0,N/A,Thunderstorm,Mostly Cloudy,20,2013-07-31 00:48:00
7:33 PM,75.2,53.6,47,30.32,10.0,WSW,29.9,41.4,N/A,Rain-Thunderstorm,Thunderstorms and Rain,240,2013-07-31 01:33:00
7:54 PM,68.0,57.2,68,30.30,20.0,South,17.3,-,N/A,Rain,Light Rain,190,2013-07-31 01:54:00
8:57 PM,68.0,57.2,68,30.29,10.0,South,5.8,-,N/A,,Clear,170,2013-07-31 02:57:00
9:17 PM,68.0,57.2,68,30.29,10.0,South,5.8,-,N/A,,Clear,170,2013-07-31 03:17:00
9:37 PM,68.0,57.2,68,30.29,10.0,South,5.8,-,N/A,,Clear,170,2013-07-31 03:37:00
9:56 PM,68.0,55.4,64,30.29,10.0,South,8.1,-,N/A,,Clear,180,2013-07-31 03:56:00
10:16 PM,68.0,55.4,64,30.30,10.0,South,8.1,-,N/A,,Clear,190,2013-07-31 04:16:00
10:36 PM,69.8,51.8,53,30.31,10.0,SSW,9.2,-,N/A,,Clear,200,2013-07-31 04:36:00
10:56 PM,69.8,51.8,53,30.31,10.0,WSW,5.8,-,N/A,,Clear,240,2013-07-31 04:56:00
11:16 PM,66.2,55.4,68,30.31,10.0,WSW,6.9,-,N/A,,Scattered Clouds,240,2013-07-31 05:16:00
11:36 PM,66.2,55.4,68,30.31,10.0,WSW,6.9,-,N/A,,Scattered Clouds,250,2013-07-31 05:36:00
11:56 PM,66.2,53.6,64,30.31,10.0,SW,8.1,-,N/A,,Clear,230,2013-07-31 05:56:00